AAL1431 KORD-KMIA

Flight info

Callsign AAL1431
Flight time 2h 57m
Altitude 36000
Route CMSKY CARYN CYBIL PXV/N0460F350 HITMN/N0461F370 ACORI FROGZ5
Aircraft B738/M-SDE2E3FGHIRWXY/LB1

Departure

Time 2026-05-07 16:43
Airport Chicago O'Hare International Airport (KORD)

Arrival

Time 2026-05-07 19:40
Airport Miami International Airport (KMIA)
Time Latitude Longitude Altitude Speed Heading
2026-05-07 15:39 41.97273 -87.90090 667 ft 0 kts 67°
2026-05-07 16:31 41.97272 -87.90094 667 ft 3 kts 68°
2026-05-07 16:31 41.97265 -87.90127 667 ft 4 kts 89°
2026-05-07 16:31 41.97270 -87.90156 667 ft 4 kts 149°
2026-05-07 16:32 41.97281 -87.90161 667 ft 1 kts 180°
2026-05-07 16:32 41.97283 -87.90161 667 ft 0 kts 180°
2026-05-07 16:37 41.97270 -87.90161 667 ft 5 kts 180°
2026-05-07 16:37 41.97217 -87.90157 666 ft 11 kts 165°
2026-05-07 16:37 41.97132 -87.90135 666 ft 14 kts 181°
2026-05-07 16:37 41.97050 -87.90127 667 ft 10 kts 143°
2026-05-07 16:38 41.97043 -87.90037 668 ft 10 kts 89°
2026-05-07 16:38 41.97044 -87.89943 669 ft 11 kts 89°
2026-05-07 16:38 41.97044 -87.89832 669 ft 13 kts 90°
2026-05-07 16:38 41.97044 -87.89705 669 ft 15 kts 90°
2026-05-07 16:39 41.97044 -87.89558 668 ft 17 kts 90°
2026-05-07 16:39 41.97046 -87.89384 665 ft 21 kts 88°
2026-05-07 16:39 41.97046 -87.89176 661 ft 23 kts 92°
2026-05-07 16:39 41.97047 -87.88955 657 ft 23 kts 89°
2026-05-07 16:40 41.97045 -87.88742 661 ft 22 kts 91°
2026-05-07 16:40 41.97045 -87.88535 657 ft 22 kts 90°
2026-05-07 16:40 41.97046 -87.88334 659 ft 21 kts 89°
2026-05-07 16:40 41.97046 -87.88159 662 ft 11 kts 90°
2026-05-07 16:41 41.97039 -87.88063 662 ft 10 kts 117°
2026-05-07 16:41 41.96984 -87.88008 663 ft 8 kts 158°
2026-05-07 16:41 41.96962 -87.88016 663 ft 3 kts 206°
2026-05-07 16:41 41.96945 -87.88035 664 ft 3 kts 220°
2026-05-07 16:42 41.96918 -87.88067 664 ft 16 kts 222°
2026-05-07 16:42 41.96637 -87.88400 660 ft 91 kts 221°
2026-05-07 16:42 41.96005 -87.89144 670 ft 151 kts 221°
2026-05-07 16:42 41.95119 -87.90203 1006 ft 177 kts 222°
2026-05-07 16:43 41.94203 -87.91225 2042 ft 167 kts 220°
2026-05-07 16:43 41.93294 -87.92218 2915 ft 171 kts 223°
2026-05-07 16:43 41.92343 -87.93228 3559 ft 176 kts 223°
2026-05-07 16:43 41.91399 -87.94262 4335 ft 173 kts 225°
2026-05-07 16:44 41.90428 -87.95206 5087 ft 176 kts 214°
2026-05-07 16:44 41.89117 -87.95471 5377 ft 212 kts 176°
2026-05-07 16:44 41.87589 -87.95102 5568 ft 233 kts 175°
2026-05-07 16:44 41.85914 -87.94726 5790 ft 252 kts 175°
2026-05-07 16:45 41.84106 -87.94349 6003 ft 274 kts 176°
2026-05-07 16:45 41.82184 -87.93977 6590 ft 282 kts 176°
2026-05-07 16:45 41.80273 -87.93627 7447 ft 281 kts 177°
2026-05-07 16:45 41.78323 -87.93291 8172 ft 284 kts 178°
2026-05-07 16:46 41.76353 -87.92969 8932 ft 286 kts 178°
2026-05-07 16:46 41.74374 -87.92657 9679 ft 288 kts 179°
2026-05-07 16:46 41.72350 -87.92346 10241 ft 296 kts 179°
2026-05-07 16:46 41.70220 -87.92029 10413 ft 319 kts 178°
2026-05-07 16:47 41.67933 -87.91683 10602 ft 340 kts 178°
2026-05-07 16:47 41.65511 -87.91325 10820 ft 358 kts 178°
2026-05-07 16:47 41.63037 -87.90957 11346 ft 364 kts 178°
2026-05-07 16:47 41.60503 -87.90574 11980 ft 368 kts 178°
2026-05-07 16:48 41.57947 -87.90186 12640 ft 371 kts 178°
2026-05-07 16:48 41.55375 -87.89797 13365 ft 372 kts 179°
2026-05-07 16:48 41.52794 -87.89410 14115 ft 374 kts 179°
2026-05-07 16:48 41.50202 -87.89023 14850 ft 376 kts 179°
2026-05-07 16:49 41.47599 -87.88636 15630 ft 377 kts 180°
2026-05-07 16:49 41.44985 -87.88247 16331 ft 379 kts 180°
2026-05-07 16:49 41.42354 -87.87859 16995 ft 381 kts 181°
2026-05-07 16:49 41.39720 -87.87725 17649 ft 377 kts 190°
2026-05-07 16:50 41.37106 -87.88001 18306 ft 377 kts 192°
2026-05-07 16:50 41.34522 -87.88315 18935 ft 379 kts 192°
2026-05-07 16:50 41.31845 -87.88621 19523 ft 383 kts 192°
2026-05-07 16:50 41.29174 -87.88898 20083 ft 387 kts 192°
2026-05-07 16:51 41.27392 -87.89074 20469 ft 389 kts 192°
2026-05-07 16:51 41.23781 -87.89366 21209 ft 395 kts 189°
2026-05-07 16:51 41.21013 -87.89360 21714 ft 401 kts 187°
2026-05-07 16:51 41.18203 -87.89253 22191 ft 405 kts 187°
2026-05-07 16:52 41.16326 -87.89164 22523 ft 407 kts 186°
2026-05-07 16:52 41.13477 -87.89026 23048 ft 409 kts 187°
2026-05-07 16:52 41.09692 -87.88859 23658 ft 412 kts 187°
2026-05-07 16:52 41.07748 -87.88783 23941 ft 414 kts 188°
2026-05-07 16:53 41.04856 -87.88682 24380 ft 417 kts 188°
2026-05-07 16:53 41.01945 -87.88585 24797 ft 420 kts 188°
2026-05-07 16:53 40.99037 -87.88491 25221 ft 421 kts 188°
2026-05-07 16:53 40.96101 -87.88398 25645 ft 423 kts 188°
2026-05-07 16:54 40.93149 -87.88307 26019 ft 425 kts 188°
2026-05-07 16:54 40.90178 -87.88215 26368 ft 428 kts 188°
2026-05-07 16:54 40.87191 -87.88123 26707 ft 431 kts 189°
2026-05-07 16:54 40.84187 -87.88030 27080 ft 432 kts 188°
2026-05-07 16:55 40.81175 -87.87935 27453 ft 433 kts 189°
2026-05-07 16:55 40.78150 -87.87840 27774 ft 436 kts 189°
2026-05-07 16:55 40.75104 -87.87745 28081 ft 438 kts 189°
2026-05-07 16:55 40.72048 -87.87651 28391 ft 440 kts 189°
2026-05-07 16:56 40.69013 -87.87556 28703 ft 442 kts 189°
2026-05-07 16:56 40.65932 -87.87460 28994 ft 444 kts 189°
2026-05-07 16:56 40.59741 -87.87266 29604 ft 446 kts 189°
2026-05-07 16:57 40.56640 -87.87172 29957 ft 446 kts 189°
2026-05-07 16:57 40.53545 -87.87074 30338 ft 444 kts 189°
2026-05-07 16:57 40.50459 -87.86976 30732 ft 442 kts 189°
2026-05-07 16:57 40.47378 -87.86880 31073 ft 442 kts 189°
2026-05-07 16:58 40.44309 -87.86784 31441 ft 440 kts 189°
2026-05-07 16:58 40.41249 -87.86689 31781 ft 439 kts 189°
2026-05-07 16:58 40.38191 -87.86598 32088 ft 439 kts 190°
2026-05-07 16:58 40.35137 -87.86505 32412 ft 438 kts 190°
2026-05-07 16:59 40.32132 -87.86412 32733 ft 437 kts 190°
2026-05-07 16:59 40.29086 -87.86305 33028 ft 437 kts 189°
2026-05-07 16:59 40.26041 -87.86176 33343 ft 437 kts 189°
2026-05-07 16:59 40.23012 -87.86035 33722 ft 434 kts 189°
2026-05-07 17:00 40.19998 -87.85894 34014 ft 433 kts 189°
2026-05-07 17:00 40.16985 -87.85757 34233 ft 434 kts 190°
2026-05-07 17:00 40.13963 -87.85622 34462 ft 434 kts 190°
2026-05-07 17:00 40.10945 -87.85488 34737 ft 434 kts 190°
2026-05-07 17:01 40.07912 -87.85355 34925 ft 435 kts 190°
2026-05-07 17:01 40.04917 -87.85225 35121 ft 436 kts 190°
2026-05-07 17:01 40.01885 -87.85091 35376 ft 435 kts 190°
2026-05-07 17:01 39.98852 -87.84958 35538 ft 437 kts 190°
2026-05-07 17:02 39.95801 -87.84825 35687 ft 438 kts 190°
2026-05-07 17:02 39.92750 -87.84692 35938 ft 437 kts 190°
2026-05-07 17:02 39.89712 -87.84558 36209 ft 436 kts 190°
2026-05-07 17:02 39.86666 -87.84425 36340 ft 439 kts 190°
2026-05-07 17:03 39.83642 -87.84295 36457 ft 441 kts 190°
2026-05-07 17:03 39.80570 -87.84161 36711 ft 440 kts 190°
2026-05-07 17:03 39.77518 -87.84025 37030 ft 437 kts 190°
2026-05-07 17:03 39.74470 -87.83891 37069 ft 440 kts 190°
2026-05-07 17:04 39.68340 -87.83628 37084 ft 440 kts 190°
2026-05-07 17:04 39.62283 -87.83355 37077 ft 429 kts 191°
2026-05-07 17:05 39.56341 -87.83094 37099 ft 426 kts 191°
2026-05-07 17:05 39.50416 -87.82843 37093 ft 426 kts 191°
2026-05-07 17:06 39.44483 -87.82593 37091 ft 426 kts 191°
2026-05-07 17:06 39.38552 -87.82341 37091 ft 426 kts 191°
2026-05-07 17:07 39.32645 -87.82089 37099 ft 427 kts 192°
2026-05-07 17:07 39.26710 -87.81833 37094 ft 427 kts 192°
2026-05-07 17:08 39.20763 -87.81579 37099 ft 427 kts 192°
2026-05-07 17:08 39.14822 -87.81325 37100 ft 427 kts 192°
2026-05-07 17:09 39.08883 -87.81070 37098 ft 426 kts 192°
2026-05-07 17:09 39.02991 -87.80817 37103 ft 426 kts 192°
2026-05-07 17:10 38.97064 -87.80565 37108 ft 424 kts 193°
2026-05-07 17:10 38.91192 -87.80314 37102 ft 423 kts 193°
2026-05-07 17:11 38.85321 -87.80064 37103 ft 421 kts 193°
2026-05-07 17:11 38.79490 -87.79815 37107 ft 418 kts 193°
2026-05-07 17:12 38.73691 -87.79571 37111 ft 416 kts 194°
2026-05-07 17:12 38.67913 -87.79327 37116 ft 414 kts 194°
2026-05-07 17:13 38.62157 -87.79085 37118 ft 413 kts 194°
2026-05-07 17:13 38.56447 -87.78849 37122 ft 413 kts 194°
2026-05-07 17:14 38.50702 -87.78611 37123 ft 413 kts 194°
2026-05-07 17:14 38.44963 -87.78369 37116 ft 412 kts 194°
2026-05-07 17:15 38.39229 -87.78131 37123 ft 411 kts 194°
2026-05-07 17:15 38.33502 -87.77890 37121 ft 411 kts 194°
2026-05-07 17:16 38.27806 -87.77653 37122 ft 411 kts 195°
2026-05-07 17:16 38.22084 -87.77416 37122 ft 412 kts 194°
2026-05-07 17:17 38.16348 -87.77177 37116 ft 412 kts 194°
2026-05-07 17:17 38.10614 -87.76936 37121 ft 412 kts 195°
2026-05-07 17:18 38.04888 -87.76700 37123 ft 412 kts 195°
2026-05-07 17:18 37.99188 -87.76465 37118 ft 412 kts 194°
2026-05-07 17:19 37.93380 -87.75821 37121 ft 435 kts 184°
2026-05-07 17:19 37.90412 -87.74759 37115 ft 453 kts 176°
2026-05-07 17:19 37.87473 -87.73121 37132 ft 466 kts 171°
2026-05-07 17:20 37.81638 -87.69469 37124 ft 469 kts 169°
2026-05-07 17:20 37.75813 -87.65787 37118 ft 467 kts 170°
2026-05-07 17:21 37.69985 -87.62165 37119 ft 466 kts 171°
2026-05-07 17:21 37.64186 -87.58605 37118 ft 465 kts 171°
2026-05-07 17:22 37.58360 -87.55049 37111 ft 465 kts 171°
2026-05-07 17:22 37.52533 -87.51501 37126 ft 464 kts 171°
2026-05-07 17:23 37.46712 -87.47949 37122 ft 465 kts 171°
2026-05-07 17:23 37.40885 -87.44402 37122 ft 464 kts 171°
2026-05-07 17:24 37.35063 -87.40863 37116 ft 464 kts 171°
2026-05-07 17:24 37.29282 -87.37357 37120 ft 464 kts 172°
2026-05-07 17:25 37.23463 -87.33837 37121 ft 464 kts 171°
2026-05-07 17:25 37.17641 -87.30318 37106 ft 464 kts 171°
2026-05-07 17:26 37.11835 -87.26814 37116 ft 463 kts 172°
2026-05-07 17:26 37.06023 -87.23314 37112 ft 463 kts 172°
2026-05-07 17:27 37.00255 -87.19851 37104 ft 462 kts 172°
2026-05-07 17:27 36.94452 -87.16366 37103 ft 463 kts 172°
2026-05-07 17:28 36.88629 -87.12876 37099 ft 463 kts 172°
2026-05-07 17:28 36.82819 -87.09403 37106 ft 464 kts 172°
2026-05-07 17:29 36.76990 -87.05925 37098 ft 464 kts 172°
2026-05-07 17:29 36.71208 -87.02476 37093 ft 464 kts 172°
2026-05-07 17:30 36.65381 -86.99007 37087 ft 464 kts 172°
2026-05-07 17:30 36.59553 -86.95544 37074 ft 464 kts 172°
2026-05-07 17:31 36.53728 -86.92092 37074 ft 463 kts 172°
2026-05-07 17:31 36.47912 -86.88647 37091 ft 462 kts 172°
2026-05-07 17:32 36.42101 -86.85209 37079 ft 462 kts 172°
2026-05-07 17:32 36.37267 -86.82357 37083 ft 461 kts 172°
2026-05-07 17:33 36.30519 -86.78381 37085 ft 461 kts 172°
2026-05-07 17:33 36.24719 -86.74967 37079 ft 461 kts 172°
2026-05-07 17:34 36.18965 -86.71589 37083 ft 460 kts 172°
2026-05-07 17:34 36.13173 -86.68462 37079 ft 439 kts 181°
2026-05-07 17:35 36.10285 -86.67669 37101 ft 417 kts 189°
2026-05-07 17:35 36.07417 -86.67123 37082 ft 416 kts 189°
2026-05-07 17:35 36.01675 -86.66054 37097 ft 417 kts 189°
2026-05-07 17:36 35.95954 -86.64962 37081 ft 419 kts 188°
2026-05-07 17:36 35.90171 -86.63823 37084 ft 420 kts 188°
2026-05-07 17:37 35.84391 -86.62669 37079 ft 421 kts 188°
2026-05-07 17:37 35.78596 -86.61522 37071 ft 422 kts 188°
2026-05-07 17:38 35.72799 -86.60375 37066 ft 422 kts 188°
2026-05-07 17:38 35.67030 -86.59233 37064 ft 423 kts 188°
2026-05-07 17:39 35.61217 -86.58089 37061 ft 423 kts 188°
2026-05-07 17:39 35.55392 -86.56944 37063 ft 424 kts 188°
2026-05-07 17:40 35.49565 -86.55796 37056 ft 425 kts 188°
2026-05-07 17:40 35.43721 -86.54646 37051 ft 424 kts 188°
2026-05-07 17:41 35.37895 -86.53500 37061 ft 424 kts 188°
2026-05-07 17:41 35.33062 -86.52559 37054 ft 423 kts 188°
2026-05-07 17:42 35.26300 -86.51236 37055 ft 423 kts 188°
2026-05-07 17:42 35.21454 -86.50290 37063 ft 424 kts 188°
2026-05-07 17:43 35.15631 -86.49154 37067 ft 424 kts 187°
2026-05-07 17:43 35.09801 -86.48017 37071 ft 424 kts 187°
2026-05-07 17:44 35.03971 -86.46883 37078 ft 423 kts 187°
2026-05-07 17:44 34.98146 -86.45748 37072 ft 423 kts 187°
2026-05-07 17:45 34.92335 -86.44622 37061 ft 423 kts 187°
2026-05-07 17:45 34.86525 -86.43499 37072 ft 423 kts 187°
2026-05-07 17:46 34.80738 -86.42382 37070 ft 424 kts 187°
2026-05-07 17:46 34.74911 -86.41255 37060 ft 423 kts 187°
2026-05-07 17:47 34.69100 -86.40141 37063 ft 423 kts 186°
2026-05-07 17:47 34.63263 -86.39017 37059 ft 424 kts 186°
2026-05-07 17:48 34.57414 -86.37889 37057 ft 427 kts 186°
2026-05-07 17:48 34.51580 -86.36766 37056 ft 427 kts 186°
2026-05-07 17:49 34.45704 -86.35642 37043 ft 428 kts 185°
2026-05-07 17:49 34.39805 -86.34514 37040 ft 429 kts 186°
2026-05-07 17:50 34.33908 -86.33383 37030 ft 428 kts 186°
2026-05-07 17:50 34.28021 -86.32258 37039 ft 427 kts 186°
2026-05-07 17:51 34.22140 -86.31138 37046 ft 428 kts 185°
2026-05-07 17:51 34.16269 -86.30018 37053 ft 426 kts 185°
2026-05-07 17:52 34.10413 -86.28905 37042 ft 425 kts 185°
2026-05-07 17:52 34.04608 -86.27800 37050 ft 424 kts 185°
2026-05-07 17:53 33.98789 -86.26698 37046 ft 422 kts 185°
2026-05-07 17:53 33.92979 -86.25600 37057 ft 422 kts 185°
2026-05-07 17:54 33.87173 -86.24507 37057 ft 422 kts 185°
2026-05-07 17:54 33.81353 -86.23408 37047 ft 423 kts 185°
2026-05-07 17:55 33.75536 -86.22312 37045 ft 423 kts 185°
2026-05-07 17:55 33.69704 -86.21212 37047 ft 425 kts 185°
2026-05-07 17:56 33.63854 -86.20113 37057 ft 426 kts 185°
2026-05-07 17:56 33.58026 -86.19020 37056 ft 427 kts 185°
2026-05-07 17:57 33.53114 -86.18099 37057 ft 427 kts 185°
2026-05-07 17:57 33.46273 -86.16817 37053 ft 428 kts 185°
2026-05-07 17:58 33.40383 -86.15715 37049 ft 429 kts 185°
2026-05-07 17:58 33.34474 -86.14614 37048 ft 430 kts 184°
2026-05-07 17:59 33.28548 -86.13509 37051 ft 431 kts 184°
2026-05-07 17:59 33.22655 -86.12410 37049 ft 432 kts 184°
2026-05-07 18:00 33.16716 -86.11302 37045 ft 432 kts 184°
2026-05-07 18:00 33.10768 -86.10199 37040 ft 432 kts 184°
2026-05-07 18:01 33.04817 -86.09097 37044 ft 433 kts 184°
2026-05-07 18:01 32.98860 -86.07998 37041 ft 433 kts 184°
2026-05-07 18:02 32.89907 -86.06336 37026 ft 434 kts 183°
2026-05-07 18:03 32.83962 -86.05241 37021 ft 435 kts 183°
2026-05-07 18:03 32.77970 -86.04136 37020 ft 435 kts 182°
2026-05-07 18:04 32.71964 -86.03031 37020 ft 436 kts 184°
2026-05-07 18:04 32.65966 -86.01928 37009 ft 436 kts 184°
2026-05-07 18:05 32.59963 -86.00826 37015 ft 437 kts 184°
2026-05-07 18:05 32.53949 -85.99725 37011 ft 438 kts 183°
2026-05-07 18:06 32.47956 -85.98627 36996 ft 439 kts 183°
2026-05-07 18:06 32.41898 -85.97519 36996 ft 439 kts 183°
2026-05-07 18:07 32.35864 -85.96418 36999 ft 439 kts 183°
2026-05-07 18:07 32.29826 -85.95317 36999 ft 439 kts 183°
2026-05-07 18:08 32.23825 -85.94222 36997 ft 439 kts 183°
2026-05-07 18:08 32.17777 -85.93123 37001 ft 438 kts 183°
2026-05-07 18:09 32.11735 -85.92026 37007 ft 438 kts 183°
2026-05-07 18:09 32.05742 -85.90940 37010 ft 438 kts 183°
2026-05-07 18:10 31.99700 -85.89845 37015 ft 438 kts 183°
2026-05-07 18:10 31.93673 -85.88755 37019 ft 438 kts 183°
2026-05-07 18:11 31.87647 -85.87666 37020 ft 438 kts 183°
2026-05-07 18:11 31.81620 -85.86579 37018 ft 438 kts 183°
2026-05-07 18:11 31.78611 -85.85738 36992 ft 459 kts 168°
2026-05-07 18:12 31.75810 -85.83875 37018 ft 483 kts 150°
2026-05-07 18:12 31.73379 -85.81039 37046 ft 497 kts 141°
2026-05-07 18:12 31.71075 -85.78002 37007 ft 499 kts 140°
2026-05-07 18:13 31.66497 -85.71870 37010 ft 499 kts 140°
2026-05-07 18:13 31.61878 -85.65773 37001 ft 499 kts 141°
2026-05-07 18:14 31.57223 -85.59715 37003 ft 499 kts 141°
2026-05-07 18:14 31.52550 -85.53678 37008 ft 499 kts 141°
2026-05-07 18:15 31.47888 -85.47659 37011 ft 498 kts 141°
2026-05-07 18:15 31.43267 -85.41699 37018 ft 496 kts 141°
2026-05-07 18:16 31.38620 -85.35718 37027 ft 496 kts 141°
2026-05-07 18:16 31.33976 -85.29752 37040 ft 495 kts 141°
2026-05-07 18:17 31.29327 -85.23784 37028 ft 495 kts 140°
2026-05-07 18:17 31.24714 -85.17871 37028 ft 494 kts 140°
2026-05-07 18:18 31.20080 -85.11940 37029 ft 494 kts 140°
2026-05-07 18:18 31.15440 -85.06017 37023 ft 494 kts 140°
2026-05-07 18:19 31.10804 -85.00104 37029 ft 494 kts 140°
2026-05-07 18:19 31.06182 -84.94219 37031 ft 494 kts 140°
2026-05-07 18:20 31.01525 -84.88297 37026 ft 494 kts 140°
2026-05-07 18:20 30.96872 -84.82386 37031 ft 494 kts 140°
2026-05-07 18:21 30.92252 -84.76533 37042 ft 494 kts 140°
2026-05-07 18:21 30.87601 -84.70648 37046 ft 494 kts 140°
2026-05-07 18:22 30.82945 -84.64764 37045 ft 494 kts 140°
2026-05-07 18:22 30.78284 -84.58882 37039 ft 493 kts 140°
2026-05-07 18:23 30.73629 -84.53017 37056 ft 493 kts 140°
2026-05-07 18:23 30.68967 -84.47151 37051 ft 494 kts 140°
2026-05-07 18:24 30.64293 -84.41284 37065 ft 494 kts 140°
2026-05-07 18:24 30.59610 -84.35414 37061 ft 495 kts 139°
2026-05-07 18:25 30.54944 -84.29572 37058 ft 497 kts 139°
2026-05-07 18:25 30.50233 -84.23682 37058 ft 498 kts 139°
2026-05-07 18:26 30.45520 -84.17795 37055 ft 498 kts 139°
2026-05-07 18:26 30.40829 -84.11945 37050 ft 498 kts 139°
2026-05-07 18:27 30.35902 -84.06421 37025 ft 482 kts 156°
2026-05-07 18:27 30.30101 -84.02673 37055 ft 477 kts 159°
2026-05-07 18:28 30.24299 -83.98938 37051 ft 478 kts 158°
2026-05-07 18:28 30.18501 -83.95127 37054 ft 480 kts 158°
2026-05-07 18:29 30.12704 -83.91284 37061 ft 480 kts 158°
2026-05-07 18:29 30.06907 -83.87444 37067 ft 480 kts 158°
2026-05-07 18:30 30.01101 -83.83612 37072 ft 481 kts 158°
2026-05-07 18:30 29.95323 -83.79802 37075 ft 481 kts 158°
2026-05-07 18:31 29.90458 -83.76600 37075 ft 481 kts 158°
2026-05-07 18:31 29.84679 -83.72799 37071 ft 481 kts 158°
2026-05-07 18:32 29.78868 -83.68981 37072 ft 481 kts 158°
2026-05-07 18:32 29.73052 -83.65172 37077 ft 481 kts 158°
2026-05-07 18:33 29.67231 -83.61362 37076 ft 481 kts 158°
2026-05-07 18:33 29.61396 -83.57546 37072 ft 482 kts 158°
2026-05-07 18:34 29.55550 -83.53727 37067 ft 483 kts 157°
2026-05-07 18:34 29.49744 -83.49940 37061 ft 483 kts 157°
2026-05-07 18:35 29.43907 -83.46138 37067 ft 482 kts 157°
2026-05-07 18:35 29.38070 -83.42342 37070 ft 482 kts 157°
2026-05-07 18:36 29.32229 -83.38545 37078 ft 482 kts 157°
2026-05-07 18:36 29.26379 -83.34749 37069 ft 482 kts 157°
2026-05-07 18:37 29.20428 -83.31341 37083 ft 476 kts 163°
2026-05-07 18:37 29.14337 -83.28374 37073 ft 475 kts 164°
2026-05-07 18:38 29.08290 -83.25427 37075 ft 475 kts 163°
2026-05-07 18:38 29.02210 -83.22390 37075 ft 476 kts 162°
2026-05-07 18:39 28.96144 -83.19322 37085 ft 477 kts 162°
2026-05-07 18:39 28.90074 -83.16250 37083 ft 477 kts 162°
2026-05-07 18:40 28.84038 -83.13200 37081 ft 478 kts 162°
2026-05-07 18:40 28.77956 -83.10133 37089 ft 478 kts 162°
2026-05-07 18:41 28.71871 -83.07078 37079 ft 478 kts 162°
2026-05-07 18:41 28.65784 -83.04018 37083 ft 478 kts 162°
2026-05-07 18:42 28.59697 -83.00964 37085 ft 478 kts 162°
2026-05-07 18:42 28.53591 -82.97907 37085 ft 479 kts 162°
2026-05-07 18:43 28.47522 -82.94868 37081 ft 479 kts 162°
2026-05-07 18:43 28.41426 -82.91819 37080 ft 479 kts 162°
2026-05-07 18:44 28.35317 -82.88769 37074 ft 479 kts 162°
2026-05-07 18:44 28.29244 -82.85741 37075 ft 479 kts 162°
2026-05-07 18:45 28.23131 -82.82699 37083 ft 479 kts 162°
2026-05-07 18:45 28.17028 -82.79663 37080 ft 479 kts 162°
2026-05-07 18:46 28.10913 -82.76623 37082 ft 479 kts 162°
2026-05-07 18:46 28.04808 -82.73592 37083 ft 479 kts 162°
2026-05-07 18:47 27.98614 -82.71019 37085 ft 467 kts 175°
2026-05-07 18:47 27.92220 -82.69825 37092 ft 465 kts 177°
2026-05-07 18:48 27.85834 -82.68698 37078 ft 467 kts 176°
2026-05-07 18:48 27.79414 -82.67473 37081 ft 468 kts 175°
2026-05-07 18:49 27.73014 -82.66209 37068 ft 469 kts 175°
2026-05-07 18:49 27.66576 -82.64937 37064 ft 470 kts 175°
2026-05-07 18:50 27.60128 -82.63668 37072 ft 470 kts 175°
2026-05-07 18:50 27.53692 -82.62403 37081 ft 469 kts 175°
2026-05-07 18:51 27.47294 -82.60761 37081 ft 472 kts 170°
2026-05-07 18:51 27.40984 -82.58807 37096 ft 473 kts 169°
2026-05-07 18:52 27.34620 -82.56865 37090 ft 473 kts 170°
2026-05-07 18:52 27.28246 -82.54980 37082 ft 473 kts 170°
2026-05-07 18:53 27.21913 -82.53131 37085 ft 473 kts 170°
2026-05-07 18:53 27.15538 -82.51272 37085 ft 473 kts 170°
2026-05-07 18:54 27.09150 -82.49405 37072 ft 473 kts 170°
2026-05-07 18:54 27.02771 -82.47541 37075 ft 473 kts 170°
2026-05-07 18:55 26.96436 -82.45693 37071 ft 473 kts 170°
2026-05-07 18:55 26.90242 -82.43167 37061 ft 484 kts 148°
2026-05-07 18:56 26.85055 -82.38281 36611 ft 492 kts 141°
2026-05-07 18:56 26.82494 -82.35737 36063 ft 490 kts 141°
2026-05-07 18:56 26.79935 -82.33208 35400 ft 490 kts 142°
2026-05-07 18:56 26.77361 -82.30696 34717 ft 491 kts 142°
2026-05-07 18:57 26.74776 -82.28200 34020 ft 491 kts 142°
2026-05-07 18:57 26.72181 -82.25712 33300 ft 492 kts 142°
2026-05-07 18:57 26.69573 -82.23221 32558 ft 492 kts 142°
2026-05-07 18:57 26.66964 -82.20731 31820 ft 493 kts 142°
2026-05-07 18:58 26.64367 -82.18252 31293 ft 488 kts 142°
2026-05-07 18:58 26.61829 -82.15829 30757 ft 485 kts 143°
2026-05-07 18:58 26.59274 -82.13387 30219 ft 482 kts 143°
2026-05-07 18:58 26.56737 -82.10967 29690 ft 477 kts 143°
2026-05-07 18:59 26.54216 -82.08563 29137 ft 474 kts 143°
2026-05-07 18:59 26.51724 -82.06170 28585 ft 471 kts 142°
2026-05-07 18:59 26.49289 -82.03747 28039 ft 467 kts 141°
2026-05-07 18:59 26.46897 -82.01319 27498 ft 463 kts 141°
2026-05-07 19:00 26.44526 -81.98904 26947 ft 459 kts 141°
2026-05-07 19:00 26.42173 -81.96514 26417 ft 455 kts 140°
2026-05-07 19:00 26.39831 -81.94147 25886 ft 451 kts 140°
2026-05-07 19:00 26.37509 -81.91807 25360 ft 447 kts 140°
2026-05-07 19:01 26.35210 -81.89496 24831 ft 443 kts 140°
2026-05-07 19:01 26.32930 -81.87207 24313 ft 440 kts 140°
2026-05-07 19:01 26.30664 -81.84934 23784 ft 436 kts 140°
2026-05-07 19:01 26.28417 -81.82680 23268 ft 433 kts 140°
2026-05-07 19:02 26.26217 -81.80473 22769 ft 429 kts 140°
2026-05-07 19:02 26.24065 -81.78228 22588 ft 418 kts 133°
2026-05-07 19:02 26.22500 -81.75518 22114 ft 417 kts 115°
2026-05-07 19:02 26.21304 -81.72603 21672 ft 413 kts 115°
2026-05-07 19:03 26.20092 -81.69712 21183 ft 410 kts 116°
2026-05-07 19:03 26.18872 -81.66850 20724 ft 406 kts 116°
2026-05-07 19:03 26.17654 -81.64024 20229 ft 404 kts 116°
2026-05-07 19:03 26.16434 -81.61212 19745 ft 402 kts 116°
2026-05-07 19:04 26.15218 -81.58421 19279 ft 399 kts 116°
2026-05-07 19:04 26.14028 -81.55687 18807 ft 396 kts 116°
2026-05-07 19:04 26.12828 -81.52939 18339 ft 393 kts 116°
2026-05-07 19:04 26.11637 -81.50211 17878 ft 390 kts 116°
2026-05-07 19:05 26.10453 -81.47499 17408 ft 387 kts 116°
2026-05-07 19:05 26.09280 -81.44812 16960 ft 384 kts 116°
2026-05-07 19:05 26.08117 -81.42150 16476 ft 382 kts 116°
2026-05-07 19:05 26.06957 -81.39500 15998 ft 379 kts 116°
2026-05-07 19:06 26.05810 -81.36872 15527 ft 376 kts 116°
2026-05-07 19:06 26.03551 -81.31686 14605 ft 370 kts 116°
2026-05-07 19:06 26.02434 -81.29122 14161 ft 367 kts 116°
2026-05-07 19:07 26.01328 -81.26584 13713 ft 363 kts 116°
2026-05-07 19:07 26.00232 -81.24072 13293 ft 359 kts 116°
2026-05-07 19:07 25.99148 -81.21589 12850 ft 356 kts 116°
2026-05-07 19:07 25.98071 -81.19125 12416 ft 352 kts 116°
2026-05-07 19:08 25.97005 -81.16685 11980 ft 349 kts 116°
2026-05-07 19:08 25.95964 -81.14306 11577 ft 345 kts 116°
2026-05-07 19:08 25.94916 -81.11913 11149 ft 342 kts 116°
2026-05-07 19:08 25.93882 -81.09553 11040 ft 338 kts 116°
2026-05-07 19:09 25.92868 -81.07238 11006 ft 328 kts 116°
2026-05-07 19:09 25.91892 -81.05013 11008 ft 313 kts 116°
2026-05-07 19:09 25.90971 -81.02884 10981 ft 299 kts 114°
2026-05-07 19:09 25.90169 -81.00811 10992 ft 285 kts 113°
2026-05-07 19:10 25.89421 -80.98825 10992 ft 275 kts 113°
2026-05-07 19:10 25.88688 -80.96871 10806 ft 277 kts 113°
2026-05-07 19:10 25.87923 -80.94858 10227 ft 288 kts 113°
2026-05-07 19:10 25.87125 -80.92774 9658 ft 297 kts 113°
2026-05-07 19:11 25.86316 -80.90661 9288 ft 297 kts 113°
2026-05-07 19:11 25.85508 -80.88561 8997 ft 295 kts 113°
2026-05-07 19:11 25.84705 -80.86473 8680 ft 293 kts 113°
2026-05-07 19:11 25.83971 -80.84395 8341 ft 292 kts 103°
2026-05-07 19:12 25.83979 -80.82153 8091 ft 292 kts 81°
2026-05-07 19:12 25.84310 -80.79924 8080 ft 292 kts 81°
2026-05-07 19:12 25.84610 -80.77717 8009 ft 287 kts 82°
2026-05-07 19:12 25.84869 -80.75535 8005 ft 285 kts 83°
2026-05-07 19:13 25.85100 -80.73329 8008 ft 289 kts 84°
2026-05-07 19:13 25.85313 -80.71093 8016 ft 293 kts 84°
2026-05-07 19:13 25.85513 -80.68844 7994 ft 292 kts 85°
2026-05-07 19:13 25.85702 -80.66605 7995 ft 291 kts 85°
2026-05-07 19:14 25.85885 -80.64371 7954 ft 291 kts 85°
2026-05-07 19:14 25.86069 -80.62094 7547 ft 301 kts 85°
2026-05-07 19:14 25.86254 -80.59759 7038 ft 305 kts 85°
2026-05-07 19:14 25.86440 -80.57413 6529 ft 303 kts 85°
2026-05-07 19:15 25.86621 -80.55118 6030 ft 300 kts 85°
2026-05-07 19:15 25.86800 -80.52835 5541 ft 295 kts 85°
2026-05-07 19:15 25.86978 -80.50576 5032 ft 292 kts 85°
2026-05-07 19:15 25.87154 -80.48342 4523 ft 289 kts 86°
2026-05-07 19:16 25.87322 -80.46133 4024 ft 286 kts 88°
2026-05-07 19:16 25.86983 -80.44001 3511 ft 281 kts 117°
2026-05-07 19:16 25.85984 -80.42153 2958 ft 280 kts 122°
2026-05-07 19:16 25.85023 -80.40265 2366 ft 280 kts 120°
2026-05-07 19:17 25.84098 -80.38413 2149 ft 267 kts 121°
2026-05-07 19:17 25.83201 -80.36667 2028 ft 254 kts 120°
2026-05-07 19:17 25.82364 -80.35011 1993 ft 238 kts 120°
2026-05-07 19:17 25.81753 -80.33377 2001 ft 223 kts 109°
2026-05-07 19:18 25.81229 -80.31746 2096 ft 229 kts 112°
2026-05-07 19:18 25.80632 -80.30060 2396 ft 240 kts 113°
2026-05-07 19:18 25.80003 -80.28329 2646 ft 243 kts 113°
2026-05-07 19:18 25.79371 -80.26607 2876 ft 236 kts 113°
2026-05-07 19:19 25.78756 -80.24944 2980 ft 230 kts 114°
2026-05-07 19:19 25.78150 -80.23322 2988 ft 226 kts 114°
2026-05-07 19:19 25.77547 -80.21716 3002 ft 225 kts 114°
2026-05-07 19:19 25.76946 -80.20117 3013 ft 224 kts 114°
2026-05-07 19:20 25.76357 -80.18538 3005 ft 224 kts 114°
2026-05-07 19:20 25.75757 -80.16950 2997 ft 222 kts 114°
2026-05-07 19:20 25.75164 -80.15376 2994 ft 221 kts 114°
2026-05-07 19:20 25.74559 -80.13805 2994 ft 222 kts 114°
2026-05-07 19:21 25.73969 -80.12236 3000 ft 218 kts 114°
2026-05-07 19:21 25.73577 -80.11183 2997 ft 218 kts 114°
2026-05-07 19:21 25.72998 -80.09636 3009 ft 222 kts 114°
2026-05-07 19:21 25.72126 -80.07543 2984 ft 224 kts 131°
2026-05-07 19:22 25.71320 -80.06863 3001 ft 219 kts 160°
2026-05-07 19:22 25.69843 -80.06825 3012 ft 216 kts 201°
2026-05-07 19:22 25.68575 -80.07692 2998 ft 216 kts 224°
2026-05-07 19:22 25.67779 -80.09093 2985 ft 218 kts 253°
2026-05-07 19:23 25.67736 -80.10759 3006 ft 220 kts 284°
2026-05-07 19:23 25.68510 -80.12212 2997 ft 223 kts 319°
2026-05-07 19:23 25.69896 -80.12962 3009 ft 226 kts 348°
2026-05-07 19:23 25.71463 -80.13137 3008 ft 226 kts 353°
2026-05-07 19:24 25.73042 -80.13358 3002 ft 229 kts 352°
2026-05-07 19:24 25.74537 -80.13905 2981 ft 228 kts 319°
2026-05-07 19:24 25.75414 -80.15318 3039 ft 224 kts 291°
2026-05-07 19:24 25.75854 -80.16985 3011 ft 225 kts 281°
2026-05-07 19:25 25.76187 -80.18671 3006 ft 228 kts 281°
2026-05-07 19:25 25.76538 -80.20392 3021 ft 231 kts 282°
2026-05-07 19:25 25.76920 -80.22142 2994 ft 235 kts 283°
2026-05-07 19:25 25.77325 -80.23912 2992 ft 239 kts 283°
2026-05-07 19:26 25.77749 -80.25709 2991 ft 241 kts 283°
2026-05-07 19:26 25.78184 -80.27511 2998 ft 242 kts 284°
2026-05-07 19:26 25.78624 -80.29303 3007 ft 239 kts 284°
2026-05-07 19:26 25.79060 -80.31095 2993 ft 240 kts 284°
2026-05-07 19:27 25.79501 -80.32885 3002 ft 240 kts 284°
2026-05-07 19:27 25.79947 -80.34650 3004 ft 241 kts 288°
2026-05-07 19:27 25.80771 -80.36274 3019 ft 241 kts 304°
2026-05-07 19:27 25.81746 -80.37794 3002 ft 243 kts 304°
2026-05-07 19:28 25.82741 -80.39342 2982 ft 247 kts 305°
2026-05-07 19:28 25.83728 -80.40882 2985 ft 242 kts 304°
2026-05-07 19:28 25.84692 -80.42399 3006 ft 240 kts 303°
2026-05-07 19:28 25.85645 -80.43906 3020 ft 238 kts 304°
2026-05-07 19:29 25.86600 -80.45416 2999 ft 239 kts 304°
2026-05-07 19:29 25.87538 -80.46906 2980 ft 230 kts 303°
2026-05-07 19:29 25.88423 -80.48315 2986 ft 222 kts 303°
2026-05-07 19:29 25.89305 -80.49719 2996 ft 221 kts 303°
2026-05-07 19:30 25.90182 -80.51119 3005 ft 220 kts 303°
2026-05-07 19:30 25.91061 -80.52522 3005 ft 222 kts 303°
2026-05-07 19:30 25.91950 -80.53941 3014 ft 226 kts 303°
2026-05-07 19:30 25.93026 -80.55213 2975 ft 230 kts 332°
2026-05-07 19:31 25.94486 -80.55853 3007 ft 229 kts 337°
2026-05-07 19:31 25.95947 -80.56553 3010 ft 228 kts 334°
2026-05-07 19:31 25.97389 -80.57295 2998 ft 229 kts 334°
2026-05-07 19:31 25.98828 -80.58054 2992 ft 230 kts 334°
2026-05-07 19:32 26.00238 -80.58889 2987 ft 229 kts 320°
2026-05-07 19:32 26.01104 -80.60321 3013 ft 225 kts 283°
2026-05-07 19:32 26.01086 -80.62029 2998 ft 221 kts 250°
2026-05-07 19:32 26.00272 -80.63436 2998 ft 219 kts 220°
2026-05-07 19:33 25.98922 -80.64164 2992 ft 219 kts 188°
2026-05-07 19:33 25.97424 -80.63993 2998 ft 219 kts 158°
2026-05-07 19:33 25.96226 -80.62975 3013 ft 219 kts 128°
2026-05-07 19:33 25.95474 -80.61526 2993 ft 220 kts 118°
2026-05-07 19:34 25.94789 -80.60005 3010 ft 220 kts 117°
2026-05-07 19:34 25.94106 -80.58486 3008 ft 220 kts 118°
2026-05-07 19:34 25.93422 -80.56964 2997 ft 220 kts 117°
2026-05-07 19:34 25.92725 -80.55431 2991 ft 224 kts 118°
2026-05-07 19:35 25.92008 -80.53890 3002 ft 225 kts 120°
2026-05-07 19:35 25.91233 -80.52378 3002 ft 226 kts 121°
2026-05-07 19:35 25.90449 -80.50868 2992 ft 223 kts 121°
2026-05-07 19:35 25.89699 -80.49410 3007 ft 211 kts 121°
2026-05-07 19:36 25.88994 -80.48030 2998 ft 207 kts 121°
2026-05-07 19:36 25.88280 -80.46634 2999 ft 209 kts 121°
2026-05-07 19:36 25.87558 -80.45211 2961 ft 215 kts 121°
2026-05-07 19:36 25.86815 -80.43747 2726 ft 217 kts 121°
2026-05-07 19:37 25.86071 -80.42308 2451 ft 212 kts 120°
2026-05-07 19:37 25.85359 -80.40900 2165 ft 207 kts 120°
2026-05-07 19:37 25.84666 -80.39530 1899 ft 199 kts 121°
2026-05-07 19:37 25.83992 -80.38206 1648 ft 197 kts 121°
2026-05-07 19:38 25.83322 -80.36896 1373 ft 192 kts 120°
2026-05-07 19:38 25.82678 -80.35629 1123 ft 186 kts 120°
2026-05-07 19:38 25.82057 -80.34409 887 ft 174 kts 120°
2026-05-07 19:38 25.81492 -80.33300 663 ft 158 kts 120°
2026-05-07 19:39 25.80967 -80.32254 418 ft 154 kts 120°
2026-05-07 19:39 25.80441 -80.31275 328 ft 139 kts 120°
2026-05-07 19:39 25.79990 -80.30344 70 ft 135 kts 120°
2026-05-07 19:39 25.79548 -80.29472 14 ft 116 kts 120°
2026-05-07 19:40 25.79218 -80.28839 12 ft 73 kts 119°
2026-05-07 19:40 25.79041 -80.28493 16 ft 30 kts 120°
2026-05-07 19:40 25.78989 -80.28375 16 ft 14 kts 109°
2026-05-07 19:40 25.78969 -80.28270 16 ft 14 kts 88°
2026-05-07 19:41 25.78994 -80.28197 15 ft 6 kts 50°
2026-05-07 19:41 25.79022 -80.28161 16 ft 6 kts 41°